Location: Launois
(49.6535°N, 4.5395°E)
Time: 11:26:27
(UTC+00:00)

Cosmos 2208 Rocket - Pass Details

Date: 23 May 2024
Orbit: 752 x 803 km, 74.0° (Epoch: 14 June)

Event Time Altitude Azimuth Distance (km) Brightness Sun altitude
Rises 02:55:00 0° 335° (NNW) 3,282 7.5 -7.3°
Reaches altitude 10° 02:57:25 10° 335° (NNW) 2,342 6.8 -7.1°
Maximum altitude 03:02:44 84° 248° (WSW) 782 4.0 -6.4°
Drops below altitude 10° 03:07:57 10° 161° (SSE) 2,293 6.2 -5.8°
Sets 03:10:17 0° 161° (SSE) 3,208 7.0 -5.5°
